Wind from 150 at 3 knots

Air temperature 3.0° C
Visibility: greater than 5.4 NM
Dewpoint -4.0° C

Last reported at 2014-Apr-24 20:20 UTC.
Time now 2014-Apr-24 22:06 UTC

Location: N 59°21' E 017°57'.
View on Google Maps.

See reports from other nearby stations

Tides Stations Pressure Air Temp Water Temp Dewpoint Dewpoint depression Visibility Wind Speed Wind Dir Waves Ship positions

  
sailing weather and tide predictions

STOCKHOLM / BROMMA weather

date/time (UTC)wind fromknots sea level pressurealtimeterstation pressurevisibilityair tempwater tempwave heightnotes
2014-Apr-24 20:20 150 3 5.4 3.0
2014-Apr-24 19:50 140 4 5.0
2014-Apr-24 19:20 140 5 5.0
2014-Apr-24 18:50 150 6 6.0
2014-Apr-24 18:20 130 8 7.0
2014-Apr-24 17:50 120 8 7.0
2014-Apr-24 17:20 130 7 8.0
2014-Apr-24 16:50 120 7 9.0
2014-Apr-24 16:20 110 8 9.0
2014-Apr-24 15:50 130 7 10.0
2014-Apr-24 15:20 140 9 10.0
2014-Apr-24 14:50 130 8 10.0
2014-Apr-24 14:20 120 9 10.0
2014-Apr-24 13:50 120 9 10.0
2014-Apr-24 13:20 120 11 11.0
2014-Apr-24 12:50 110 10 11.0
2014-Apr-24 12:20 120 10 11.0
2014-Apr-24 11:50 120 9 11.0
2014-Apr-24 11:20 100 8 11.0
2014-Apr-24 10:50 120 10 11.0
2014-Apr-24 10:20 130 9 11.0
2014-Apr-24 09:50 120 7 10.0
2014-Apr-24 09:20 110 9 10.0
2014-Apr-24 08:50 070 9 10.0
2014-Apr-24 08:20 120 9 10.0
2014-Apr-24 07:50 120 7 9.0
2014-Apr-24 07:20 100 4 8.0
2014-Apr-24 06:50 100 4 7.0
2014-Apr-24 06:20 070 3 6.0
2014-Apr-24 05:50 4.0
2014-Apr-24 05:20 040 3 2.0
2014-Apr-24 04:50 050 3 1.0
2014-Apr-24 04:20 020 2 -0.0
2014-Apr-24 03:50 360 3 -1.0
2014-Apr-24 03:20 020 3 5.4-1.0
2014-Apr-24 02:50 020 3 5.4-1.0
2014-Apr-24 02:20 010 3 5.4-1.0
2014-Apr-24 01:50 020 4 5.4-0.0
2014-Apr-24 01:20 020 4 5.4-0.0
2014-Apr-24 00:50 030 4 5.4-0.0
2014-Apr-24 00:20 5.4-1.0
2014-Apr-23 23:50 010 4 5.4-0.0
2014-Apr-23 23:20 010 4 5.4 1.0
2014-Apr-23 22:50 010 4 5.4 1.0
2014-Apr-23 22:20 010 5 5.4 2.0
2014-Apr-23 21:50 020 6 5.4 2.0
2014-Apr-23 21:20 020 7 5.4 2.0
2014-Apr-23 20:50 020 7 5.4 3.0
2014-Apr-23 20:20 020 6 5.4 3.0
2014-Apr-23 19:50 020 7 4.0
2014-Apr-23 19:20 030 8 5.0
2014-Apr-23 18:50 040 10 5.0
2014-Apr-23 18:20 020 9 6.0
2014-Apr-23 17:50 030 11 7.0
2014-Apr-23 17:20 050 8 8.0
2014-Apr-23 16:50 030 10 8.0
2014-Apr-23 16:20 020 10 9.0
2014-Apr-23 15:50 040 11 9.0
2014-Apr-23 15:20 030 10 10.0
2014-Apr-23 14:50 020 10 10.0
2014-Apr-23 14:20 050 10 10.0
2014-Apr-23 13:50 050 10 10.0
2014-Apr-23 13:20 040 12 gusting 22 10.0
2014-Apr-23 12:50 020 11 10.0
2014-Apr-23 12:20 360 11 10.0
2014-Apr-23 11:50 020 10 11.0
2014-Apr-23 11:20 060 10 11.0
2014-Apr-23 10:50 030 11 10.0
2014-Apr-23 10:20 040 11 10.0
2014-Apr-23 09:50 040 11 10.0
2014-Apr-23 09:20 040 10 gusting 20 10.0
2014-Apr-23 08:50 080 11 9.0
2014-Apr-23 08:20 070 12 9.0
2014-Apr-23 07:50 070 13 9.0
2014-Apr-23 07:20 060 14 gusting 24 8.0
2014-Apr-23 06:50 050 11 8.0
2014-Apr-23 06:20 050 10 7.0
2014-Apr-23 05:50 050 8 6.0
2014-Apr-23 05:20 030 6 5.0
2014-Apr-23 04:50 030 8 5.0
2014-Apr-23 04:20 030 7 4.0
2014-Apr-23 03:50 030 6 4.0
2014-Apr-23 03:20 020 8 3.0
2014-Apr-23 02:50 030 8 5.4 3.0
2014-Apr-23 02:20 030 7 5.4 4.0
2014-Apr-23 01:50 020 6 5.4 4.0
2014-Apr-23 01:20 010 7 5.4 4.0
2014-Apr-23 00:50 010 7 5.4 4.0
2014-Apr-23 00:20 020 7 5.4 5.0
2014-Apr-22 23:50 010 7 5.4 5.0
2014-Apr-22 23:20 020 7 5.4 5.0
2014-Apr-22 22:50 020 6 5.4 6.0
2014-Apr-22 22:20 010 7 5.4 6.0